This is the latest recevied weather packets stored in our database for station/object YO2LDK-13. If no packets are shown the sender has not sent any weather packets the latest 10 day(s).
| Time | Temp. | Humidity | Pressure | Rain* | Wind** | Luminosity | Snow |
|---|---|---|---|---|---|---|---|
| 1777395620 | 17.78° C | 37% | 1006.4 hPa | 0 mm | - | 12 W/m² | - |
| 1777394720 | 18.33° C | 35% | 1006.8 hPa | 0 mm | - | 8 W/m² | - |
| 1777394420 | 18.33° C | 35% | 1006.4 hPa | 0 mm | - | 10 W/m² | - |
| 1777394120 | 18.33° C | 34% | 1006.1 hPa | 0 mm | - | 14 W/m² | - |
| 1777393819 | 18.89° C | 34% | 1006.4 hPa | 0 mm | - | 16 W/m² | - |
| 1777393520 | 18.89° C | 33% | 1006.4 hPa | 0 mm | - | 16 W/m² | - |
| 1777392920 | 18.89° C | 32% | 1006.8 hPa | 0 mm | - | 26 W/m² | - |
| 1777392020 | 19.44° C | 30% | 1006.8 hPa | 0 mm | - | 47 W/m² | - |
| 1777391720 | 19.44° C | 30% | 1006.8 hPa | 0 mm | - | 55 W/m² | - |
| 1777391420 | 20° C | 29% | 1007.1 hPa | 0 mm | - | 65 W/m² | - |
| 1777390821 | 20° C | 30% | 1006.8 hPa | 0 mm | - | 98 W/m² | - |
| 1777390520 | 20.56° C | 29% | 1007.1 hPa | 0 mm | - | 114 W/m² | - |
| 1777390225 | 20° C | 29% | 1007.1 hPa | 0 mm | - | 125 W/m² | - |
| 1777389920 | 20.56° C | 30% | 1007.1 hPa | 0 mm | - | 105 W/m² | - |
| 1777389620 | 20.56° C | 29% | 1007.1 hPa | 0 mm | - | 137 W/m² | - |
| 1777388420 | 21.11° C | 29% | 1007.1 hPa | 0 mm | - | 192 W/m² | - |
| 1777387820 | 20.56° C | 29% | 1007.5 hPa | 0 mm | - | 182 W/m² | - |
| 1777387520 | 20.56° C | 28% | 1007.1 hPa | 0 mm | - | 160 W/m² | - |
| 1777386920 | 20.56° C | 29% | 1006.8 hPa | 0 mm | - | 160 W/m² | - |
| 1777386620 | 20.56° C | 27% | 1007.1 hPa | 0 mm | - | 151 W/m² | - |
| 1777386319 | 21.11° C | 28% | 1007.1 hPa | 0 mm | - | 189 W/m² | - |
| 1777385720 | 21.11° C | 27% | 1007.1 hPa | 0 mm | - | 204 W/m² | - |
| 1777384220 | 21.11° C | 30% | 1007.5 hPa | 0 mm | - | 322 W/m² | - |
| 1777383320 | 21.67° C | 27% | 1007.5 hPa | 0 mm | - | 343 W/m² | - |
| 1777383021 | 21.67° C | 28% | 1007.8 hPa | 0 mm | - | 311 W/m² | - |
* Rain latest hour (hover to see other rain measurements)
** Current wind speed in m/s (hover to see current wind gust speed)